Location: Santa Teresa Spring
(37.2333°N, 121.7000°W)
Time: 01:45:04
(UTC-08:00)

ISS - Visible Passes

Search period start: 23 November 2014 00:00
Search period end: 03 December 2014 00:00
Orbit: 408 x 417 km, 51.6° (Epoch: 23 November)

Date Brightness Start Highest point End Pass type
(mag) Time Alt. Az. Time Alt. Az. Time Alt. Az.
23 Nov -0.6 05:25:17 10° N 05:26:22 11° NNE 05:27:29 10° NE visible
24 Nov -1.8 06:10:52 10° NNW 06:13:50 30° NNE 06:16:47 10° E visible
25 Nov -1.2 05:22:49 17° N 05:23:54 19° NNE 05:26:23 10° ENE visible
26 Nov -0.2 04:35:10 12° NE 04:35:10 12° NE 04:35:37 10° NE visible
26 Nov -3.3 06:07:59 13° NW 06:10:56 80° NE 06:14:13 10° SE visible
27 Nov -2.4 05:20:21 36° N 05:21:00 42° NE 05:24:09 10° ESE visible
28 Nov -0.3 04:32:44 16° ENE 04:32:44 16° ENE 04:33:46 10° E visible
28 Nov -2.3 06:05:33 16° WNW 06:07:36 32° SW 06:10:35 10° SSE visible
29 Nov -3.2 05:17:58 62° SSW 05:17:58 62° SSW 05:20:58 10° SE visible
30 Nov -0.2 04:30:24 14° ESE 04:30:24 14° ESE 04:30:56 10° ESE visible
30 Nov -1.0 06:03:13 11° WSW 06:03:53 11° SW 06:04:53 10° SW visible
01 Dec -0.9 05:15:41 15° S 05:15:41 15° S 05:16:33 10° S visible
